Regional Weather Roundup
Issued by NWS Upton, NY

Current Version | Previous Version | Graphics & Text | Print | Product List | Glossary Off
Versions: 1 2 3 4 5 6 7 8 9 10 11 12 13 14 15 16 17 18 19 20 21 22 23 24 25 26 27 28

000
ASUS41 KOKX 230205
RWROKX

REGIONAL WEATHER ROUNDUP
NATIONAL WEATHER SERVICE NEW YORK NY
1000 PM EDT FRI JUL 22 2016

NOTE: "FAIR" INDICATES FEW OR NO CLOUDS BELOW 12,000 FEET WITH NO
SIGNIFICANT WEATHER AND/OR OBSTRUCTIONS TO VISIBILITY.

NYZ071-072-176-178-NJZ106-104-230300-
NEW YORK CITY METRO AREA

CITY           SKY/WX    TMP DP  RH WIND       PRES   REMARKS
Central Park   CLEAR     86  71  60 CALM      29.83R HX  91
LaGuardia APRT PTCLDY    89  71  55 SW13G21   29.80R HX  95
Kennedy INTL   PTCLDY    84  68  58 SW16      29.83R
Newark/Liberty PTCLDY    87  70  56 SW15      29.80R HX  92
BRNX BOT. GARD   N/A     88  70  55 W6        29.81S HX  92
Wall St Helipt CLEAR     84  73  70 SW9       29.82R HX  91
Teterboro      CLEAR     89  69  51 SW15G22   29.79R HX  93
$$

NYZ177-179-078>081-230300-
LONG ISLAND NEW YORK

CITY           SKY/WX    TMP DP  RH WIND       PRES   REMARKS
FARMINGDALE    CLEAR     81  69  67 SW14      29.82R
ISLIP          PTCLDY    79  71  76 SW12      29.81R
SHIRLEY        CLEAR     79  71  76 SW9       29.82R
RIVERHEAD      NOT AVBL
WESTHAMPTON    CLEAR     75  70  84 SW10      29.84R
SOUTHAMPTON      N/A     73  72  94 W8        29.78S
BRIDGEHAMPTON    N/A     75  72  88 S2        29.81S
EAST HAMPTON   FAIR      74  71  91 SW10G16   29.82R
MONTAUK POINT    N/A     75  73  93 SW13G25   29.82S
$$

NYZ052-065-067-230300-
HUDSON VALLEY

CITY           SKY/WX    TMP DP  RH WIND       PRES   REMARKS
WHITE PLAINS   CLEAR     87  65  47 VRB5      29.81R
NEWBURGH       PTCLDY    84  70  61 W8        29.82R
MONTGOMERY     CLOUDY    80  70  71 SE5       29.80R
POUGHKEEPSIE   HVY RAIN  82  69  64 SW13      29.77R
ALBANY         PTCLDY    83  65  54 W12       29.78R
$$

NJZ001-105-106-008-010-013-015-019>022-104-230300-
NEW JERSEY

CITY           SKY/WX    TMP DP  RH WIND       PRES   REMARKS
NEWARK/LIBERTY PTCLDY    87  70  56 SW15      29.80R HX  92
TETERBORO      CLEAR     89  69  51 SW15G22   29.79R HX  93
CALDWELL       CLEAR     86  67  52 VRB3      29.80R
MORRISTOWN     PTCLDY    84  68  58 SW8       29.81R
SOMERVILLE     CLEAR     83  70  64 S5        29.80S
SUSSEX         CLEAR     82  68  62 SW3       29.83R
ANDOVER          N/A     77  67  71 S3        29.84R
TRENTON        CLEAR     84  71  65 SW7       29.84R
MILLVILLE      CLEAR     83  73  72 SW6       29.89R
ATLANTIC CITY  PTCLDY    82  72  71 SW7       29.88R
WRIGHTSTOWN    CLEAR     82  71  68 SW13      29.83R
TOMS RIVER     CLEAR     82  70  65 SW10      29.87R
BELMAR         CLEAR     84  70  62 SW9       29.86R
$$

PAZ047>061-062-071-230300-
EASTERN PENNSYLVANIA

CITY           SKY/WX    TMP DP  RH WIND       PRES   REMARKS
PHILADELPHIA   PTCLDY    85  71  63 SW13      29.87R HX  90
ALLENTOWN      CLEAR     83  66  56 SW8       29.84R
SCRANTON       CLEAR     80  67  64 S5        29.86R
$$

CTZ002-004>006-009-010-012-RIZ004-006-007-MAZ004-011-015-230300-
SOUTHERN NEW ENGLAND
 IN CT

CITY           SKY/WX    TMP DP  RH WIND       PRES   REMARKS
BRADLEY INTL   TSTM      78  70  76 S6        29.76R
HARTFORD       PTCLDY    85  71  63 E6        29.77R HX  90
DANBURY        PTCLDY    84  68  58 SW7       29.81R
WTRBRY/OXFORD    N/A     79  68  69 CALM      29.83R
BRIDGEPORT     CLEAR     79  71  76 SW8       29.78R
MERIDEN        HVY RAIN  81  72  74 CALM      29.78R
NEW HAVEN      CLEAR     76  71  85 W3        29.79R
CHESTER        MOCLDY    79  72  78 SW9       29.81R
GROTON         CLEAR     78  71  79 SW13      29.79R
WILLIMANTIC    NOT AVBL

 IN RI

CITY           SKY/WX    TMP DP  RH WIND       PRES   REMARKS
PROVIDENCE     LGT RAIN  77  70  79 SW10      29.78F
BLOCK ISLAND   CLEAR     73  71  93 SW18G25   29.82R
WESTERLY       CLEAR     78  68  71 SW14G21   29.80R

 IN MA

CITY           SKY/WX    TMP DP  RH WIND       PRES   REMARKS
BOSTON         PTCLDY    81  70  69 SW13      29.75R
WORCESTER      PTCLDY    75  71  87 SW8       29.81S
WESTFIELD      PTCLDY    79  67  66 CALM      29.77R
PROVINCETOWN   LGT RAIN  72  69  90 SW20G26   29.77S
NANTUCKET      CLEAR     72  70  93 SW13      29.84R
$$

ANZ330-335-338-340-345-350-353-355-230300-
COASTAL MARINE OBSERVATIONS


STATION/POSITION TIME  SKY/WX   TEMP    WIND        PRES    VSBY  WAVE
                                AIR SEA DIR/SP/G                  HT/PER
                 (UTC)          (F)     (DEG/KT/KT) (MB)    (MI)  (FT/S)
NY HARB ENTRANCE 0050            76 72  210/ 16/ 19 1009.1          5/ 6
20S FIRE ISLAND  0050            77 74  220/ 21/ 25 1009.0          6/ 6
GREAT SOUTH BAY  0130            78 80  230/ 17/ 23   N/A
23 SSW MONTAUK P 0050            76 72  220/ 19/ 23 1009.7          6/ 6
15 E BARNEGAT LI 0122               75                N/A           5/ 5
HUDSON CANYON    0050            78 76              1011.2          5/ 5
KINGS POINT      0100            86 74                N/A
EXECUTION ROCKS  0100            80     210/ 12/ 16   N/A
CENTRAL LI SOUND 0130            78 72  210/ 16/ 17   N/A           2/ 3
EASTERN LI SOUND 0100            75 67  220/ 17/ 23   N/A
ROBBINS REEF     0100            88                   N/A
$$


>>>>>>>>>>>>>>>>>>>>>>>>>>>> KEY <<<<<<<<<<<<<<<<<<<<<<<<<<<
>                                                          <
>     SKY/WX - SKY CONDITION/PRESENT WEATHER               <
>     TMP    - TEMPERATURE IN FAHRENHEIT                   <
>     DP     - DEWPOINT IN FAHRENHEIT                      <
>     RH     - RELATIVE HUMIDITY IN PERCENT                <
>     WIND   - DIRECTION AND SPEED IN MPH                  <
>     PRES   - MEAN SEA LEVEL PRESSURE IN INCHES OF HG     <
>     WCI    - WIND CHILL INDEX                            <
>     VSB    - VISIBILITY IN MILES                         <
>     HX     - HEAT INDEX                                  <
>     TC     - TEMPERATURE IN CELSIUS                      <
>     VRB    - VARIABLE WIND DIRECTION                     <
>                                                          <
>>>>>>>>>>>>>>>>>>>>>>>>>>>> KEY <<<<<<<<<<<<<<<<<<<<<<<<<<<






USA.gov is the U.S. government's official web portal to all federal, state and local government web resources and services.